DW4273 Weather Reports


Display with metric or nautical units.
time (UTC)temp
F
wind
direction
speed
MPH
gust
MPH
rain 1hr
in
rain 24hr
in
rain mn
in
humidity
%
barometer
mb
20260508105056 44 0.0 0.0 0.01 0.03 0.03 87 1009.8
20260508104055 45 0.0 0.0 0.01 0.03 0.03 86 1010.1
20260508103056 45 0.0 0.0 0.01 0.03 0.03 87 1010.2
20260508102101 45 270 1.0 4.0 0.01 0.03 0.03 88 1010.5
20260508101056 45 248 2.0 12.0 0.01 0.03 0.03 88 1010.5
20260508100015 44 0.0 0.0 0.00 0.02 0.02 87 1010.3
20260508095015 45 0.0 0.0 0.00 0.02 0.02 86 1009.8
20260508094036 45 0.0 0.0 0.01 0.02 0.02 86 1009.7
20260508093035 45 180 1.0 4.0 0.02 0.02 0.02 85 1009.7
20260508092015 46 0.0 2.0 0.02 0.02 0.02 84 1009.9
20260508091035 46 248 2.0 5.0 0.02 0.02 0.02 83 1010.2
20260508090056 47 225 3.0 6.0 0.02 0.02 0.02 81 1010.0
20260508085015 47 248 4.0 11.0 0.02 0.02 0.02 80 1010.0
20260508084035 47 270 11.0 20.0 0.01 0.01 0.01 79 1010.4
20260508083017 47 248 9.0 16.0 0.00 0.00 0.00 79 1010.3
20260508082016 46 225 8.0 12.0 0.00 0.00 0.00 79 1010.0
20260508081015 46 225 8.0 12.0 0.00 0.00 0.00 79 1010.0
20260508080016 46 225 7.0 12.0 0.00 0.00 0.00 80 1010.2
20260508075036 46 203 4.0 9.0 0.00 0.00 0.00 80 1010.3
20260508074015 46 203 2.0 6.0 0.00 0.00 0.00 80 1010.2
20260508073113 46 225 4.0 7.0 0.00 0.00 0.00 79 1010.3
20260508072515 46 203 3.0 8.0 0.00 0.00 0.00 79 1010.4
20260508071536 46 225 4.0 8.0 0.00 0.00 0.00 79 1010.4
20260508070515 46 225 4.0 9.0 0.00 0.00 0.00 79 1010.5
20260508065516 47 225 5.0 9.0 0.00 0.00 0.00 79 1010.7
20260508064516 47 225 6.0 10.0 0.00 0.00 0.00 80 1010.7
20260508063515 47 248 7.0 12.0 0.00 0.00 0.00 79 1010.9
20260508061556 48 225 10.0 15.0 0.00 0.00 0.00 74 1011.0
20260508060516 48 225 7.0 11.0 0.00 0.00 0.00 72 1010.8
20260508055515 47 203 4.0 9.0 0.00 0.00 0.00 73 1010.7
20260508054516 47 203 3.0 7.0 0.00 0.00 0.00 74 1010.8
20260508053516 47 203 2.0 7.0 0.00 0.00 0.00 74 1010.7
20260508052516 47 203 3.0 7.0 0.00 0.00 0.00 74 1010.8
20260508051515 46 203 1.0 5.0 0.00 0.00 0.00 76 1010.9
20260508050516 46 0.0 3.0 0.00 0.00 0.00 76 1011.0
20260508045516 46 0.0 1.0 0.00 0.00 0.00 77 1011.0
20260508044516 46 0.0 3.0 0.00 0.00 0.00 77 1010.9
20260508043516 46 0.0 4.0 0.00 0.00 0.00 76 1010.9
20260508043016 46 0.0 1.0 0.00 0.00 0.00 77 1010.9
20260508042016 46 0.0 0.0 0.00 0.00 0.00 75 1010.9
20260508041016 47 0.0 0.0 0.00 0.00 0.00 73 1010.8
20260508040016 47 0.0 3.0 0.00 0.00 0.00 73 1011.1
20260508035035 47 0.0 3.0 0.00 0.00 0.00 73 1011.2
20260508034015 47 0.0 0.0 0.00 0.00 0.00 73 1011.3
20260508033015 48 0.0 0.0 0.00 0.00 0.00 72 1011.3
20260508032015 48 0.0 0.0 0.00 0.00 0.00 70 1011.3
20260508031015 48 0.0 0.0 0.00 0.00 0.00 67 1011.5
20260508030015 49 270 1.0 6.0 0.00 0.00 0.00 66 1011.6
20260508025015 49 270 2.0 8.0 0.00 0.00 0.00 66 1011.7
20260508024016 49 270 7.0 11.0 0.00 0.00 0.00 64 1011.5
20260508023015 48 248 8.0 12.0 0.00 0.00 0.00 66 1011.3
20260508022015 46 248 2.0 6.0 0.00 0.00 0.00 73 1011.1
20260508021015 45 0.0 2.0 0.00 0.00 0.00 76 1010.9
20260508020015 45 0.0 0.0 0.00 0.00 0.00 77 1010.8
20260508015015 45 0.0 0.0 0.00 0.00 0.00 77 1010.6
20260508014015 45 0.0 0.0 0.00 0.00 0.00 75 1010.4
20260508013035 46 0.0 0.0 0.00 0.00 0.00 73 1010.4
20260508012015 46 0.0 0.0 0.00 0.00 0.00 70 1010.4
20260508011035 47 0.0 0.0 0.00 0.00 0.00 65 1010.2
20260508010015 48 0.0 0.0 0.00 0.00 0.00 65 1010.2
20260508005016 49 0.0 0.0 0.00 0.00 0.00 62 1010.2
20260508004015 50 0.0 0.0 0.00 0.00 0.00 55 1010.1
20260508003015 51 0.0 0.0 0.00 0.00 0.00 55 1010.1
20260508002015 52 0.0 0.0 0.00 0.00 0.00 49 1010.0
20260508001056 52 0.0 0.0 0.00 0.00 0.00 48 1009.9
20260508000015 53 0.0 0.0 0.00 0.00 0.00 48 1009.9
20260507235015 53 0.0 1.0 0.00 0.00 0.00 48 1009.7
20260507234036 53 0.0 2.0 0.00 0.00 0.00 47 1009.8
20260507233015 53 315 1.0 9.0 0.00 0.00 0.00 47 1009.7
20260507232036 54 338 2.0 7.0 0.00 0.00 0.00 46 1009.8
20260507231015 55 315 2.0 9.0 0.00 0.00 0.00 44 1009.8
20260507230016 55 293 1.0 10.0 0.00 0.00 0.00 45 1009.7
20260507225035 55 270 6.0 16.0 0.00 0.00 0.00 44 1009.8
20260507224015 55 315 2.0 7.0 0.00 0.00 0.00 46 1009.9
20260507223035 55 315 1.0 5.0 0.00 0.00 0.00 45 1009.8
20260507222036 55 293 2.0 11.0 0.00 0.00 0.00 45 1009.7
20260507221015 55 270 5.0 14.0 0.00 0.00 0.00 44 1009.8
20260507220035 55 315 4.0 9.0 0.00 0.00 0.00 45 1009.7
20260507215016 55 315 4.0 13.0 0.00 0.00 0.00 45 1009.6
20260507214025 56 270 6.0 13.0 0.00 0.00 0.00 44 1009.5
20260507213016 55 270 7.0 13.0 0.00 0.00 0.00 47 1009.5
20260507212016 54 270 4.0 11.0 0.00 0.00 0.00 46 1009.5
20260507211016 55 270 7.0 15.0 0.00 0.00 0.00 47 1009.5
20260507210035 55 248 8.0 19.0 0.00 0.00 0.00 46 1009.4
20260507205016 55 270 10.0 19.0 0.00 0.00 0.00 47 1009.4
20260507204015 55 270 7.0 18.0 0.00 0.00 0.00 51 1009.3
20260507203036 55 270 10.0 20.0 0.00 0.00 0.00 48 1009.3
20260507202016 55 248 10.0 15.0 0.00 0.00 0.00 50 1009.2
20260507201016 54 248 10.0 18.0 0.00 0.00 0.00 50 1009.5
20260507200016 55 270 8.0 17.0 0.00 0.00 0.00 50 1009.4
20260507195016 55 248 10.0 16.0 0.00 0.00 0.00 52 1009.5
20260507194016 54 248 10.0 19.0 0.00 0.00 0.00 54 1009.4
20260507193015 55 270 8.0 20.0 0.00 0.00 0.00 54 1009.7
20260507192015 54 248 9.0 14.0 0.00 0.00 0.00 55 1009.7
20260507191036 53 293 5.0 14.0 0.00 0.00 0.00 52 1009.6
20260507190116 54 248 7.0 13.0 0.00 0.00 0.00 53 1009.7
20260507185016 54 270 7.0 14.0 0.00 0.00 0.00 53 1009.8
20260507184016 55 248 7.0 15.0 0.00 0.00 0.00 52 1009.8
20260507183136 54 248 7.0 15.0 0.00 0.00 0.00 54 1009.9
20260507182015 54 270 7.0 13.0 0.00 0.00 0.00 57 1009.9
20260507181016 54 248 9.0 15.0 0.00 0.00 0.00 54 1010.0
20260507180035 53 270 6.0 12.0 0.00 0.00 0.00 55 1010.1
20260507175015 54 270 6.0 13.0 0.00 0.00 0.00 54 1010.1
20260507174016 54 248 8.0 15.0 0.00 0.00 0.00 55 1010.1
20260507173035 54 248 9.0 16.0 0.00 0.00 0.00 53 1010.1
20260507172036 54 248 8.0 14.0 0.00 0.00 0.00 54 1010.3
20260507171036 55 270 7.0 11.0 0.00 0.00 0.00 54 1010.3
20260507170025 54 248 8.0 13.0 0.00 0.00 0.00 53 1010.2
20260507165016 53 225 6.0 12.0 0.00 0.00 0.00 55 1010.2
20260507164016 53 293 4.0 9.0 0.00 0.00 0.00 54 1010.3
20260507163015 53 270 5.0 9.0 0.00 0.00 0.00 55 1010.3
20260507162036 54 248 8.0 16.0 0.00 0.00 0.00 54 1010.3
20260507161016 53 248 6.0 13.0 0.00 0.00 0.00 56 1010.4
20260507160016 53 248 7.0 14.0 0.00 0.00 0.00 53 1010.4
20260507155016 53 270 4.0 10.0 0.00 0.00 0.00 57 1010.3
20260507154016 53 315 6.0 12.0 0.00 0.00 0.00 54 1010.3
20260507153056 52 248 8.0 14.0 0.00 0.00 0.00 54 1010.3
20260507152036 52 270 5.0 12.0 0.00 0.00 0.00 55 1010.3
20260507151056 53 270 7.0 10.0 0.00 0.00 0.00 53 1010.5
20260507150036 52 248 5.0 13.0 0.00 0.00 0.00 62 1010.4
20260507145016 52 270 4.0 11.0 0.00 0.00 0.00 61 1010.4
20260507144016 52 248 7.0 12.0 0.00 0.00 0.00 66 1010.6
20260507143016 51 225 6.0 13.0 0.00 0.00 0.00 63 1010.3
20260507142036 50 270 4.0 10.0 0.00 0.00 0.00 66 1010.4
20260507141036 50 270 3.0 8.0 0.00 0.00 0.00 70 1010.5
20260507140016 49 248 4.0 11.0 0.00 0.00 0.00 71 1010.6
20260507135016 49 248 7.0 11.0 0.00 0.00 0.00 72 1010.7
20260507134016 48 248 7.0 10.0 0.00 0.00 0.00 72 1010.8
20260507133016 48 248 3.0 8.0 0.00 0.00 0.00 75 1010.9
20260507132016 47 225 4.0 10.0 0.00 0.00 0.00 77 1010.9
20260507131036 46 248 4.0 8.0 0.00 0.00 0.00 79 1010.9
20260507130016 46 248 5.0 9.0 0.00 0.00 0.00 79 1010.9
20260507125016 45 248 5.0 8.0 0.00 0.00 0.00 80 1010.9
20260507124016 45 248 6.0 9.0 0.00 0.00 0.00 80 1011.0
20260507123016 45 248 5.0 8.0 0.00 0.00 0.00 81 1010.9
20260507122036 45 248 4.0 9.0 0.00 0.00 0.00 83 1010.7
20260507121016 44 248 5.0 9.0 0.00 0.00 0.00 83 1010.8
20260507120016 44 248 4.0 8.0 0.00 0.00 0.00 85 1010.7
20260507115036 43 248 4.0 7.0 0.00 0.00 0.00 86 1010.7
20260507114036 43 248 4.0 8.0 0.00 0.01 0.00 88 1010.7
20260507113016 42 248 2.0 5.0 0.00 0.01 0.00 89 1010.6
20260507112036 41 0.0 6.0 0.00 0.01 0.00 89 1010.4
20260507111016 40 225 1.0 4.0 0.00 0.01 0.00 90 1010.4
20260507110036 39 0.0 2.0 0.00 0.01 0.00 91 1010.3